N1261P KBOI-KBOI

Flight info

Callsign N1261P
Flight time 0h 3m
Altitude 3900
Route KBOI ZZZZ
Aircraft PISI/L-NAV/L

Departure

Time 2026-05-05 23:43
Airport Boise Air Terminal/Gowen Field (KBOI)

Arrival

Time 2026-05-05 23:46
Airport Boise Air Terminal/Gowen Field (KBOI)
Time Latitude Longitude Altitude Speed Heading
2026-05-05 23:33 43.55954 -116.21945 2859 ft 0 kts 168°
2026-05-05 23:40 43.55951 -116.21959 2857 ft 3 kts 342°
2026-05-05 23:40 43.55962 -116.21939 2859 ft 12 kts 77°
2026-05-05 23:40 43.56015 -116.21814 2861 ft 16 kts 89°
2026-05-05 23:41 43.56022 -116.21717 2862 ft 4 kts 34°
2026-05-05 23:41 43.56031 -116.21711 2862 ft 0 kts 22°
2026-05-05 23:41 43.56038 -116.21708 2862 ft 7 kts 22°
2026-05-05 23:42 43.56128 -116.21716 2859 ft 23 kts 309°
2026-05-05 23:42 43.56253 -116.22045 2918 ft 46 kts 298°
2026-05-05 23:42 43.56386 -116.22478 2968 ft 52 kts 297°
2026-05-05 23:42 43.56535 -116.22915 3105 ft 53 kts 300°
2026-05-05 23:43 43.56688 -116.23400 3218 ft 56 kts 300°
2026-05-05 23:43 43.56835 -116.23867 3391 ft 54 kts 303°
2026-05-05 23:43 43.57003 -116.24347 3570 ft 64 kts 304°
2026-05-05 23:43 43.56931 -116.25019 3922 ft 89 kts 228°
2026-05-05 23:44 43.56304 -116.25542 3911 ft 118 kts 207°
2026-05-05 23:44 43.55526 -116.25742 3831 ft 113 kts 180°
2026-05-05 23:44 43.54844 -116.25267 3905 ft 112 kts 112°
2026-05-05 23:44 43.54580 -116.24249 3852 ft 112 kts 101°
2026-05-05 23:45 43.54323 -116.23265 3829 ft 106 kts 102°
2026-05-05 23:45 43.54095 -116.22278 3842 ft 117 kts 102°
2026-05-05 23:45 43.53965 -116.21266 3756 ft 96 kts 73°
2026-05-05 23:45 43.54214 -116.20600 3585 ft 69 kts 30°
2026-05-05 23:46 43.54599 -116.20324 3413 ft 65 kts
2026-05-05 23:46 43.55071 -116.20108 3296 ft 75 kts 357°
2026-05-05 23:46 43.55507 -116.20326 3141 ft 61 kts 320°
2026-05-05 23:46 43.55756 -116.20713 2984 ft 48 kts 303°
2026-05-05 23:47 43.55906 -116.21065 2867 ft 34 kts 303°
2026-05-05 23:47 43.56004 -116.21329 2865 ft 50 kts 302°
2026-05-05 23:47 43.56176 -116.21878 3100 ft 70 kts 296°
2026-05-05 23:47 43.56329 -116.22511 3471 ft 82 kts 273°
2026-05-05 23:48 43.55783 -116.23029 3800 ft 101 kts 208°
2026-05-05 23:48 43.55105 -116.23374 3905 ft 105 kts 212°
2026-05-05 23:48 43.54441 -116.23760 3956 ft 97 kts 212°
2026-05-05 23:48 43.53797 -116.24118 3961 ft 99 kts 189°
2026-05-05 23:49 43.53247 -116.23632 3838 ft 95 kts 110°
2026-05-05 23:49 43.53026 -116.22733 3867 ft 110 kts 96°
2026-05-05 23:49 43.52983 -116.21779 3803 ft 87 kts 50°
2026-05-05 23:49 43.53414 -116.21363 3712 ft 81 kts
2026-05-05 23:50 43.54003 -116.21090 3664 ft 103 kts 15°
2026-05-05 23:50 43.54751 -116.20682 3441 ft 126 kts 15°
2026-05-05 23:50 43.55566 -116.20382 3207 ft 104 kts 343°
2026-05-05 23:50 43.55887 -116.21157 3182 ft 97 kts 298°
2026-05-05 23:51 43.56193 -116.21937 3258 ft 88 kts 307°
2026-05-05 23:51 43.56710 -116.22256 3515 ft 89 kts 351°
2026-05-05 23:51 43.57355 -116.22202 3687 ft 95 kts
2026-05-05 23:51 43.58052 -116.21909 3816 ft 109 kts 16°
2026-05-05 23:52 43.58081 -116.21189 3902 ft 117 kts 127°
2026-05-05 23:52 43.57576 -116.20351 3816 ft 109 kts 124°
2026-05-05 23:52 43.57132 -116.19470 3755 ft 115 kts 118°
2026-05-05 23:52 43.56615 -116.18508 3696 ft 129 kts 123°
2026-05-05 23:53 43.56074 -116.17577 3744 ft 122 kts 159°
2026-05-05 23:53 43.55399 -116.17802 3647 ft 89 kts 240°
2026-05-05 23:53 43.55177 -116.18546 3489 ft 81 kts 284°
2026-05-05 23:53 43.55389 -116.19445 3250 ft 112 kts 298°
2026-05-05 23:54 43.55542 -116.20002 3227 ft 55 kts 298°
2026-05-05 23:54 43.55673 -116.20420 3054 ft 55 kts 304°
2026-05-05 23:54 43.55844 -116.20881 2900 ft 45 kts 302°
2026-05-05 23:54 43.55984 -116.21251 2913 ft 40 kts 303°
2026-05-05 23:55 43.56065 -116.21451 3189 ft 37 kts 298°
2026-05-05 23:55 43.56100 -116.21902 3546 ft 64 kts 267°
2026-05-05 23:55 43.55630 -116.22437 3791 ft 108 kts 219°
2026-05-05 23:55 43.54953 -116.22868 3929 ft 109 kts 209°
2026-05-05 23:56 43.54267 -116.23300 4070 ft 86 kts 211°
2026-05-05 23:56 43.53689 -116.23565 3831 ft 96 kts 197°
2026-05-05 23:56 43.52984 -116.23549 3677 ft 93 kts 225°
2026-05-05 23:56 43.53084 -116.24108 3702 ft 81 kts 348°
2026-05-05 23:57 43.53688 -116.23845 3523 ft 105 kts 41°
2026-05-05 23:57 43.54232 -116.23289 3552 ft 87 kts 17°
2026-05-05 23:57 43.54682 -116.23009 3869 ft 67 kts 13°
2026-05-05 23:57 43.55050 -116.22667 3878 ft 91 kts 80°
2026-05-05 23:58 43.54814 -116.21806 3717 ft 100 kts 102°
2026-05-05 23:58 43.54530 -116.20880 3725 ft 114 kts 97°
2026-05-05 23:58 43.54249 -116.19847 3859 ft 117 kts 124°
2026-05-05 23:58 43.53750 -116.18936 3865 ft 121 kts 116°
2026-05-05 23:59 43.53389 -116.18049 3782 ft 94 kts 80°
2026-05-05 23:59 43.53675 -116.17392 3602 ft 79 kts 20°
2026-05-05 23:59 43.54168 -116.17463 3432 ft 72 kts 318°
2026-05-05 23:59 43.54621 -116.17780 3469 ft 83 kts 354°
2026-05-06 00:00 43.54995 -116.18253 3343 ft 83 kts 297°
2026-05-06 00:00 43.55202 -116.18977 3272 ft 83 kts 307°
2026-05-06 00:00 43.55429 -116.19585 3133 ft 70 kts 304°
2026-05-06 00:00 43.55621 -116.20222 2993 ft 69 kts 302°
2026-05-06 00:01 43.55816 -116.20806 2896 ft 59 kts 298°
2026-05-06 00:01 43.55951 -116.21179 2865 ft 36 kts 304°
2026-05-06 00:01 43.56115 -116.21668 2950 ft 72 kts 303°
2026-05-06 00:01 43.56342 -116.22331 3156 ft 81 kts 304°
2026-05-06 00:02 43.56495 -116.23054 3503 ft 89 kts 266°
2026-05-06 00:02 43.55973 -116.23656 3735 ft 107 kts 204°
2026-05-06 00:02 43.55217 -116.23687 3838 ft 113 kts 118°
2026-05-06 00:02 43.54805 -116.22766 3815 ft 120 kts 111°
2026-05-06 00:03 43.54378 -116.21803 3938 ft 113 kts 114°
2026-05-06 00:03 43.54001 -116.20986 3946 ft 93 kts 113°
2026-05-06 00:03 43.53654 -116.20186 3913 ft 104 kts 108°
2026-05-06 00:03 43.53286 -116.19323 3915 ft 106 kts 110°
2026-05-06 00:04 43.52826 -116.18488 3941 ft 108 kts 126°
2026-05-06 00:04 43.52396 -116.17701 4004 ft 98 kts 112°
2026-05-06 00:04 43.52313 -116.16890 3915 ft 88 kts 50°
2026-05-06 00:04 43.52635 -116.16316 3874 ft 68 kts 22°
2026-05-06 00:05 43.53600 -116.15721 3839 ft 91 kts
2026-05-06 00:05 43.54066 -116.16077 3743 ft 79 kts 311°
2026-05-06 00:05 43.54364 -116.16834 3534 ft 114 kts 306°
2026-05-06 00:06 43.54803 -116.17884 3274 ft 131 kts 304°
2026-05-06 00:06 43.55115 -116.18857 3250 ft 84 kts 303°
2026-05-06 00:06 43.55406 -116.19629 3068 ft 95 kts 305°
2026-05-06 00:06 43.55632 -116.20387 3032 ft 48 kts 298°
2026-05-06 00:07 43.55795 -116.20796 2906 ft 45 kts 310°
2026-05-06 00:07 43.55946 -116.21187 2868 ft 38 kts 306°
2026-05-06 00:07 43.56051 -116.21491 2880 ft 55 kts 305°
2026-05-06 00:07 43.56247 -116.22074 3029 ft 74 kts 302°
2026-05-06 00:08 43.56455 -116.22692 3401 ft 75 kts 305°
2026-05-06 00:08 43.56635 -116.23403 3684 ft 84 kts 278°
2026-05-06 00:08 43.56231 -116.24247 3848 ft 119 kts 234°
2026-05-06 00:08 43.55553 -116.24890 3983 ft 119 kts 217°
2026-05-06 00:09 43.54903 -116.24673 4100 ft 103 kts 100°
2026-05-06 00:09 43.54654 -116.23713 3991 ft 111 kts 106°
2026-05-06 00:09 43.54321 -116.22753 3941 ft 112 kts 107°
2026-05-06 00:09 43.53998 -116.21786 3876 ft 111 kts 104°
2026-05-06 00:10 43.53663 -116.20831 3805 ft 110 kts 109°
2026-05-06 00:10 43.53302 -116.19985 3895 ft 96 kts 115°
2026-05-06 00:10 43.52915 -116.19145 3851 ft 110 kts 115°
2026-05-06 00:10 43.52461 -116.18252 3817 ft 118 kts 118°
2026-05-06 00:11 43.51984 -116.17300 3904 ft 115 kts 121°
2026-05-06 00:11 43.51528 -116.16426 3840 ft 112 kts 121°
2026-05-06 00:11 43.51353 -116.15600 3882 ft 81 kts 45°
2026-05-06 00:11 43.51741 -116.14882 3945 ft 104 kts 34°
2026-05-06 00:12 43.52287 -116.14402 3902 ft 87 kts 16°
2026-05-06 00:12 43.52939 -116.14292 3776 ft 104 kts 338°
2026-05-06 00:12 43.53479 -116.14928 3636 ft 103 kts 337°
2026-05-06 00:12 43.53954 -116.15685 3476 ft 116 kts 306°
2026-05-06 00:13 43.54409 -116.16691 3342 ft 127 kts 307°
2026-05-06 00:13 43.54754 -116.17750 3256 ft 102 kts 303°
2026-05-06 00:13 43.55041 -116.18582 3127 ft 95 kts 307°
2026-05-06 00:13 43.55339 -116.19425 3032 ft 105 kts 299°
2026-05-06 00:14 43.55675 -116.20421 2912 ft 118 kts 302°
2026-05-06 00:14 43.55954 -116.21237 2867 ft 67 kts 310°
2026-05-06 00:14 43.56168 -116.21818 3009 ft 78 kts 302°
2026-05-06 00:14 43.56426 -116.22575 3225 ft 98 kts 303°
2026-05-06 00:15 43.56719 -116.23471 3401 ft 99 kts 304°
2026-05-06 00:15 43.56966 -116.24288 3575 ft 97 kts 302°
2026-05-06 00:15 43.57231 -116.25213 3721 ft 106 kts 299°
2026-05-06 00:15 43.57490 -116.26202 3844 ft 114 kts 296°
2026-05-06 00:16 43.57735 -116.27272 3862 ft 120 kts 294°
2026-05-06 00:16 43.57984 -116.28360 3881 ft 118 kts 296°
2026-05-06 00:16 43.58019 -116.29496 3975 ft 130 kts 261°
2026-05-06 00:16 43.57269 -116.30016 3858 ft 120 kts 189°
2026-05-06 00:17 43.56601 -116.29712 3794 ft 103 kts 100°
2026-05-06 00:17 43.56318 -116.28807 3590 ft 101 kts 102°
2026-05-06 00:17 43.56049 -116.27886 3417 ft 115 kts 89°
2026-05-06 00:17 43.55811 -116.26903 3582 ft 108 kts 112°
2026-05-06 00:18 43.55385 -116.26037 3557 ft 110 kts 114°
2026-05-06 00:18 43.54977 -116.25133 3604 ft 112 kts 110°
2026-05-06 00:18 43.54552 -116.24225 3547 ft 117 kts 110°
2026-05-06 00:18 43.54170 -116.23178 3541 ft 125 kts 110°
2026-05-06 00:19 43.53766 -116.22079 3553 ft 131 kts 113°
2026-05-06 00:19 43.53325 -116.20988 3639 ft 123 kts 110°
2026-05-06 00:19 43.52995 -116.20113 3793 ft 104 kts 121°
2026-05-06 00:19 43.52467 -116.19233 3852 ft 125 kts 97°
2026-05-06 00:20 43.52843 -116.18433 3587 ft 103 kts 12°
2026-05-06 00:20 43.53567 -116.18146 3592 ft 109 kts 11°
2026-05-06 00:20 43.54302 -116.17937 3426 ft 94 kts
2026-05-06 00:20 43.54837 -116.18296 3247 ft 91 kts 313°
2026-05-06 00:21 43.55165 -116.19038 3078 ft 85 kts 304°
2026-05-06 00:21 43.55422 -116.19716 2949 ft 75 kts 304°
2026-05-06 00:21 43.55653 -116.20357 2916 ft 82 kts 306°
2026-05-06 00:21 43.55855 -116.20946 2873 ft 51 kts 309°
2026-05-06 00:22 43.55995 -116.21336 2896 ft 53 kts 310°
2026-05-06 00:22 43.56182 -116.21857 3118 ft 69 kts 304°
2026-05-06 00:22 43.56388 -116.22527 3330 ft 84 kts 302°
2026-05-06 00:22 43.56617 -116.23246 3663 ft 79 kts 300°
2026-05-06 00:23 43.56830 -116.23935 3764 ft 72 kts 303°
2026-05-06 00:23 43.57001 -116.24565 3832 ft 70 kts 311°
2026-05-06 00:23 43.57247 -116.25201 3919 ft 82 kts 278°
2026-05-06 00:23 43.56867 -116.25782 3834 ft 93 kts 219°
2026-05-06 00:24 43.56258 -116.26175 3800 ft 103 kts 205°
2026-05-06 00:24 43.55684 -116.26020 3738 ft 90 kts 89°
2026-05-06 00:24 43.55193 -116.25970 3884 ft 94 kts 258°
2026-05-06 00:24 43.55488 -116.26426 3951 ft 66 kts
2026-05-06 00:25 43.55508 -116.25721 3848 ft 98 kts 100°
2026-05-06 00:25 43.55193 -116.24957 3818 ft 96 kts 109°
2026-05-06 00:25 43.54815 -116.24160 3895 ft 95 kts 104°
2026-05-06 00:25 43.54476 -116.23406 3942 ft 92 kts 111°
2026-05-06 00:26 43.54080 -116.22633 3977 ft 102 kts 111°
2026-05-06 00:26 43.53671 -116.21822 3911 ft 105 kts 114°
2026-05-06 00:26 43.53276 -116.20981 3925 ft 104 kts 112°
2026-05-06 00:26 43.52892 -116.20175 3941 ft 95 kts 120°
2026-05-06 00:27 43.52495 -116.19442 3926 ft 97 kts 124°
2026-05-06 00:27 43.52045 -116.18743 3956 ft 100 kts 129°
2026-05-06 00:27 43.51554 -116.18051 3954 ft 100 kts 127°
2026-05-06 00:27 43.51083 -116.17279 3998 ft 112 kts 124°
2026-05-06 00:28 43.50679 -116.16425 4090 ft 93 kts 83°
2026-05-06 00:28 43.50960 -116.15740 4021 ft 84 kts 37°
2026-05-06 00:28 43.51339 -116.15158 4088 ft 79 kts 34°
2026-05-06 00:28 43.51760 -116.14696 4167 ft 72 kts 16°
2026-05-06 00:29 43.52282 -116.14346 4204 ft 92 kts 11°
2026-05-06 00:29 43.52873 -116.14239 4119 ft 92 kts 353°
2026-05-06 00:29 43.53508 -116.14436 3951 ft 94 kts 327°
2026-05-06 00:29 43.53879 -116.15236 3711 ft 100 kts 303°
2026-05-06 00:30 43.54162 -116.16082 3489 ft 93 kts 303°
2026-05-06 00:30 43.54436 -116.16851 3351 ft 91 kts 307°
2026-05-06 00:30 43.54720 -116.17642 3225 ft 88 kts 305°
2026-05-06 00:30 43.54958 -116.18353 3130 ft 81 kts 304°
2026-05-06 00:31 43.55225 -116.19136 3041 ft 99 kts 302°
2026-05-06 00:31 43.55480 -116.19867 2953 ft 74 kts 305°
2026-05-06 00:31 43.55648 -116.20365 3043 ft 49 kts 309°
2026-05-06 00:31 43.55802 -116.20770 2905 ft 45 kts 306°
2026-05-06 00:32 43.55928 -116.21113 2877 ft 40 kts 311°
2026-05-06 00:32 43.56083 -116.21582 3108 ft 60 kts 306°
2026-05-06 00:32 43.56270 -116.22173 3377 ft 79 kts 301°
2026-05-06 00:32 43.56240 -116.22930 3662 ft 102 kts 225°
2026-05-06 00:33 43.55547 -116.23354 3811 ft 118 kts 206°
2026-05-06 00:33 43.54701 -116.23679 3847 ft 127 kts 198°
2026-05-06 00:33 43.53870 -116.23985 4041 ft 123 kts 199°
2026-05-06 00:33 43.53098 -116.24244 4313 ft 109 kts 208°
2026-05-06 00:34 43.52302 -116.24474 4314 ft 120 kts 198°
2026-05-06 00:34 43.51459 -116.24661 4365 ft 125 kts 195°
2026-05-06 00:34 43.50565 -116.24619 4358 ft 132 kts 179°
2026-05-06 00:34 43.49674 -116.24373 4396 ft 128 kts 172°
2026-05-06 00:35 43.48829 -116.24157 4600 ft 125 kts 183°
2026-05-06 00:35 43.47981 -116.24079 4708 ft 123 kts 183°
2026-05-06 00:35 43.47134 -116.24139 4854 ft 117 kts 193°
2026-05-06 00:35 43.46313 -116.24460 4763 ft 135 kts 212°
2026-05-06 00:36 43.45447 -116.25243 4449 ft 157 kts 231°
2026-05-06 00:36 43.44822 -116.26261 4750 ft 127 kts 251°
2026-05-06 00:36 43.44543 -116.27381 4763 ft 126 kts 273°
2026-05-06 00:36 43.44617 -116.28572 4801 ft 121 kts 296°
2026-05-06 00:37 43.44935 -116.29548 4987 ft 107 kts 311°
2026-05-06 00:37 43.44571 -116.30432 5552 ft 74 kts 245°
2026-05-06 00:37 43.44282 -116.30668 5512 ft 31 kts 298°
2026-05-06 00:37 43.44351 -116.30750 5294 ft 76 kts 94°
2026-05-06 00:38 43.44294 -116.30382 4734 ft 16 kts 13°
2026-05-06 00:38 43.44085 -116.30652 4332 ft 66 kts 218°
2026-05-06 00:38 43.44199 -116.30533 3924 ft 44 kts 32°
2026-05-06 00:38 43.44341 -116.30187 4277 ft 63 kts 44°
2026-05-06 00:39 43.43866 -116.29879 4218 ft 54 kts 282°
2026-05-06 00:39 43.43877 -116.29829 3799 ft 109 kts 82°
2026-05-06 00:39 43.43723 -116.30017 3568 ft 112 kts 219°
2026-05-06 00:39 43.43530 -116.30840 3479 ft 95 kts 297°
2026-05-06 00:40 43.43946 -116.31568 3268 ft 97 kts 304°
2026-05-06 00:40 43.44262 -116.32361 3083 ft 91 kts 302°
2026-05-06 00:40 43.44621 -116.33074 2927 ft 94 kts 312°
2026-05-06 00:40 43.45032 -116.33724 2857 ft 85 kts 311°
2026-05-06 00:41 43.45418 -116.34395 2871 ft 81 kts 324°
2026-05-06 00:41 43.45768 -116.34801 2952 ft 65 kts 307°
2026-05-06 00:41 43.46027 -116.35364 2831 ft 81 kts 306°
2026-05-06 00:41 43.46181 -116.35908 2777 ft 44 kts 304°
2026-05-06 00:42 43.46223 -116.36067 2773 ft 0 kts 297°